DLH64E EDDM-LIEE

Flight info

Callsign DLH64E
Flight time N/A
Altitude 37000
Route TURBU7Q TURBU Y107 TOBSO DCT BAKOR DCT IPLUB DCT ELB DCT NEMIT DCT IBROS DCT OLBEK DCT ROMPO DCT LABOM/N0367F190 Q125 KOVAS KOVAS2Y
Aircraft A20N/M-SDE2E3FGHIRWXY/LB1

Departure

Time N/A
Airport Munich Airport (EDDM)

Arrival

Time 2026-04-28 19:41
Airport Cagliari Elmas Airport (LIEE)
Time Latitude Longitude Altitude Speed Heading
2026-04-28 18:54 43.73157 10.65073 37050 ft 465 kts 192°
2026-04-28 18:55 43.67850 10.63692 37050 ft 466 kts 192°
2026-04-28 18:55 43.60440 10.61771 37048 ft 467 kts 192°
2026-04-28 18:56 43.54031 10.60114 37044 ft 467 kts 192°
2026-04-28 18:56 43.47651 10.58468 37042 ft 467 kts 192°
2026-04-28 18:57 43.41232 10.56816 37041 ft 467 kts 192°
2026-04-28 18:57 43.34887 10.55186 37043 ft 467 kts 192°
2026-04-28 18:58 43.28461 10.53539 37045 ft 467 kts 192°
2026-04-28 18:58 43.22098 10.51911 37046 ft 467 kts 192°
2026-04-28 18:59 43.15683 10.50274 37039 ft 467 kts 192°
2026-04-28 18:59 43.09342 10.48659 37033 ft 467 kts 192°
2026-04-28 19:00 43.02925 10.47028 37034 ft 466 kts 192°
2026-04-28 19:00 42.96548 10.45411 37042 ft 466 kts 192°
2026-04-28 19:01 42.90196 10.43803 37035 ft 466 kts 192°
2026-04-28 19:01 42.83835 10.42197 37038 ft 466 kts 192°
2026-04-28 19:02 42.77421 10.40581 37039 ft 466 kts 192°
2026-04-28 19:02 42.71091 10.38708 37042 ft 465 kts 197°
2026-04-28 19:03 42.64900 10.36270 37041 ft 465 kts 198°
2026-04-28 19:03 42.58719 10.33712 37036 ft 465 kts 199°
2026-04-28 19:04 42.52561 10.31055 37027 ft 465 kts 199°
2026-04-28 19:04 42.46486 10.28410 37052 ft 454 kts 200°
2026-04-28 19:05 42.40469 10.25783 37054 ft 451 kts 200°
2026-04-28 19:05 42.34520 10.23191 37051 ft 451 kts 200°
2026-04-28 19:06 42.29526 10.21023 37052 ft 451 kts 200°
2026-04-28 19:06 42.22565 10.18012 37051 ft 451 kts 200°
2026-04-28 19:07 42.16590 10.15434 37051 ft 451 kts 200°
2026-04-28 19:07 42.10591 10.12851 37048 ft 452 kts 200°
2026-04-28 19:08 42.04635 10.10290 37055 ft 452 kts 200°
2026-04-28 19:08 41.98617 10.07709 37051 ft 452 kts 200°
2026-04-28 19:09 41.92654 10.05156 37052 ft 451 kts 200°
2026-04-28 19:09 41.86637 10.02585 37046 ft 452 kts 200°
2026-04-28 19:10 41.80680 10.00044 37050 ft 452 kts 200°
2026-04-28 19:10 41.74666 9.97485 37047 ft 452 kts 200°
2026-04-28 19:11 41.68687 9.94945 37049 ft 452 kts 200°
2026-04-28 19:11 41.62693 9.92404 37051 ft 451 kts 200°
2026-04-28 19:12 41.56698 9.89867 37049 ft 451 kts 200°
2026-04-28 19:12 41.50717 9.87341 37051 ft 451 kts 199°
2026-04-28 19:13 41.44741 9.84822 37047 ft 451 kts 199°
2026-04-28 19:13 41.38770 9.82310 37040 ft 451 kts 199°
2026-04-28 19:14 41.32751 9.79783 37040 ft 451 kts 199°
2026-04-28 19:14 41.26778 9.77280 37038 ft 452 kts 199°
2026-04-28 19:15 41.20765 9.74754 37023 ft 457 kts 199°
2026-04-28 19:15 41.17722 9.73478 36877 ft 461 kts 199°
2026-04-28 19:15 41.15692 9.72632 36613 ft 461 kts 199°
2026-04-28 19:16 41.11618 9.70942 36034 ft 460 kts 199°
2026-04-28 19:16 41.08556 9.69675 35581 ft 459 kts 199°
2026-04-28 19:16 41.05520 9.68421 35148 ft 459 kts 199°
2026-04-28 19:16 41.02450 9.67153 34713 ft 458 kts 198°
2026-04-28 19:17 40.99428 9.65904 34291 ft 458 kts 198°
2026-04-28 19:17 40.96385 9.64648 33847 ft 458 kts 198°
2026-04-28 19:17 40.93327 9.63387 33361 ft 457 kts 198°
2026-04-28 19:17 40.90282 9.62133 32850 ft 458 kts 198°
2026-04-28 19:18 40.87267 9.60892 32310 ft 458 kts 198°
2026-04-28 19:18 40.84206 9.59634 31800 ft 459 kts 198°
2026-04-28 19:18 40.81149 9.58379 31298 ft 459 kts 198°
2026-04-28 19:18 40.78128 9.57140 30820 ft 460 kts 198°
2026-04-28 19:19 40.75055 9.55882 30344 ft 460 kts 198°
2026-04-28 19:19 40.72018 9.54640 29831 ft 460 kts 198°
2026-04-28 19:19 40.68948 9.53385 29279 ft 458 kts 198°
2026-04-28 19:19 40.65902 9.52139 28728 ft 454 kts 198°
2026-04-28 19:20 40.62916 9.50918 28207 ft 450 kts 198°
2026-04-28 19:20 40.59918 9.49691 27679 ft 447 kts 198°
2026-04-28 19:20 40.56982 9.48489 27169 ft 443 kts 198°
2026-04-28 19:20 40.54058 9.47291 26675 ft 440 kts 198°
2026-04-28 19:21 40.51122 9.46091 26162 ft 436 kts 198°
2026-04-28 19:21 40.48267 9.44925 25679 ft 432 kts 198°
2026-04-28 19:21 40.45399 9.43754 25192 ft 428 kts 198°
2026-04-28 19:21 40.42579 9.42604 24730 ft 425 kts 198°
2026-04-28 19:22 40.39742 9.41447 24261 ft 422 kts 198°
2026-04-28 19:22 40.38828 9.41071 24111 ft 421 kts 199°
2026-04-28 19:22 40.34248 9.38950 23310 ft 416 kts 201°
2026-04-28 19:22 40.31541 9.37582 22766 ft 413 kts 202°
2026-04-28 19:23 40.28907 9.36225 22263 ft 410 kts 202°
2026-04-28 19:23 40.27135 9.35308 21910 ft 408 kts 202°
2026-04-28 19:23 40.23633 9.33508 21236 ft 405 kts 202°
2026-04-28 19:23 40.20998 9.32166 20731 ft 402 kts 202°
2026-04-28 19:24 40.19270 9.31290 20411 ft 400 kts 202°
2026-04-28 19:24 40.16673 9.29981 20104 ft 398 kts 202°
2026-04-28 19:24 40.14107 9.28692 20045 ft 397 kts 202°
2026-04-28 19:24 40.11517 9.27393 20041 ft 397 kts 202°
2026-04-28 19:25 40.08924 9.26094 20040 ft 397 kts 202°
2026-04-28 19:25 40.06375 9.24819 20020 ft 396 kts 202°
2026-04-28 19:25 40.03788 9.23525 19718 ft 394 kts 202°
2026-04-28 19:25 40.01265 9.22265 19247 ft 389 kts 202°
2026-04-28 19:26 39.98741 9.21003 18776 ft 383 kts 202°
2026-04-28 19:26 39.96285 9.19775 18322 ft 379 kts 202°
2026-04-28 19:26 39.93824 9.18544 17792 ft 376 kts 202°
2026-04-28 19:26 39.91376 9.17321 17277 ft 373 kts 202°
2026-04-28 19:27 39.88974 9.16122 16770 ft 371 kts 202°
2026-04-28 19:27 39.86586 9.14961 16272 ft 369 kts 200°
2026-04-28 19:27 39.84135 9.13987 15775 ft 366 kts 198°
2026-04-28 19:27 39.81680 9.13087 15289 ft 364 kts 197°
2026-04-28 19:28 39.79258 9.12234 14815 ft 361 kts 196°
2026-04-28 19:28 39.76824 9.11395 14338 ft 358 kts 196°
2026-04-28 19:28 39.74441 9.10584 13848 ft 354 kts 196°
2026-04-28 19:28 39.72055 9.09776 13197 ft 353 kts 196°
2026-04-28 19:29 39.69683 9.08978 12551 ft 347 kts 195°
2026-04-28 19:29 39.68141 9.08460 12128 ft 340 kts 195°
2026-04-28 19:29 39.65138 9.07461 11301 ft 329 kts 193°
2026-04-28 19:29 39.62906 9.07134 10687 ft 322 kts 183°
2026-04-28 19:30 39.60669 9.07103 10097 ft 315 kts 181°
2026-04-28 19:30 39.58537 9.07142 9590 ft 305 kts 180°
2026-04-28 19:30 39.56437 9.07198 9066 ft 296 kts 180°
2026-04-28 19:30 39.54403 9.07244 8546 ft 288 kts 182°
2026-04-28 19:31 39.52482 9.06671 7924 ft 282 kts 207°
2026-04-28 19:31 39.50835 9.05365 7319 ft 279 kts 214°
2026-04-28 19:31 39.49260 9.03891 6729 ft 277 kts 216°
2026-04-28 19:31 39.47752 9.02441 6388 ft 266 kts 216°
2026-04-28 19:32 39.46299 9.01044 6117 ft 252 kts 216°
2026-04-28 19:32 39.44947 8.99681 5844 ft 241 kts 225°
2026-04-28 19:32 39.44107 8.97860 5530 ft 236 kts 253°
2026-04-28 19:32 39.44082 8.95775 5274 ft 240 kts 283°
2026-04-28 19:33 39.44869 8.93866 4956 ft 244 kts 311°
2026-04-28 19:33 39.46242 8.92592 4455 ft 249 kts 332°
2026-04-28 19:33 39.47861 8.91686 3839 ft 257 kts 339°
2026-04-28 19:33 39.49459 8.90609 3291 ft 261 kts 322°
2026-04-28 19:34 39.50634 8.88889 3028 ft 249 kts 296°
2026-04-28 19:34 39.51079 8.86859 2987 ft 232 kts 269°
2026-04-28 19:34 39.50770 8.84855 3000 ft 224 kts 239°
2026-04-28 19:34 39.49781 8.83358 3003 ft 216 kts 210°
2026-04-28 19:35 39.48428 8.82686 2999 ft 209 kts 182°
2026-04-28 19:35 39.47016 8.82955 3002 ft 205 kts 155°
2026-04-28 19:35 39.45767 8.83860 3000 ft 206 kts 146°
2026-04-28 19:35 39.44583 8.84906 3000 ft 205 kts 144°
2026-04-28 19:36 39.43417 8.85958 2983 ft 206 kts 144°
2026-04-28 19:36 39.42233 8.87017 2833 ft 205 kts 144°
2026-04-28 19:36 39.41058 8.88056 2723 ft 209 kts 145°
2026-04-28 19:36 39.39826 8.89136 2568 ft 215 kts 145°
2026-04-28 19:37 39.38589 8.90214 2304 ft 215 kts 145°
2026-04-28 19:37 39.37765 8.90932 2103 ft 212 kts 144°
2026-04-28 19:37 39.36271 8.92402 1961 ft 192 kts 139°
2026-04-28 19:37 39.35268 8.93524 1694 ft 187 kts 137°
2026-04-28 19:38 39.34329 8.94621 1709 ft 179 kts 136°
2026-04-28 19:38 39.33419 8.95693 1523 ft 177 kts 134°
2026-04-28 19:38 39.32547 8.96831 1439 ft 184 kts 133°
2026-04-28 19:38 39.31661 8.97952 1404 ft 173 kts 136°
2026-04-28 19:39 39.30776 8.98922 1270 ft 161 kts 141°
2026-04-28 19:39 39.29940 8.99805 1091 ft 147 kts 136°
2026-04-28 19:39 39.29268 9.00709 902 ft 136 kts 133°
2026-04-28 19:39 39.28625 9.01557 780 ft 144 kts 142°
2026-04-28 19:40 39.27755 9.02479 675 ft 165 kts 141°
2026-04-28 19:40 39.26927 9.03400 475 ft 149 kts 141°
2026-04-28 19:40 39.26167 9.04274 173 ft 146 kts 141°
2026-04-28 19:40 39.25429 9.05101 21 ft 134 kts 139°
2026-04-28 19:41 39.24915 9.05698 21 ft 58 kts 138°
2026-04-28 19:41 39.24802 9.05828 21 ft 17 kts 138°
2026-04-28 19:41 39.24690 9.05995 18 ft 24 kts 104°
2026-04-28 19:41 39.24738 9.06151 19 ft 15 kts 21°
2026-04-28 19:42 39.24773 9.06138 19 ft 2 kts 321°
2026-04-28 19:42 39.24786 9.06124 19 ft 3 kts 317°
2026-04-28 19:42 39.24817 9.06086 19 ft 10 kts 317°
2026-04-28 19:42 39.24858 9.06036 19 ft 14 kts 317°
2026-04-28 19:43 39.24967 9.05910 20 ft 6 kts 318°
2026-04-28 19:43 39.25002 9.05869 20 ft 9 kts 318°
2026-04-28 19:43 39.25018 9.05851 20 ft 0 kts 318°